Location: ????????
(48.4751°N, 37.6926°E)
Time: 02:35:39
(UTC+00:00)

Cosmos 1092 Rocket - Pass Details

Date: 20 January 2021
Orbit: 954 x 995 km, 83.0° (Epoch: 24 February)

Event Time Altitude Azimuth Distance (km) Brightness Sun altitude
Rises 16:52:51 0° 196° (SSW) 3,656 7.2 -26.7°
Reaches altitude 10° 16:55:23 10° 199° (SSW) 2,707 6.5 -27.1°
Maximum altitude 17:01:33 67° 281° (W) 1,040 4.2 -28.1°
Drops below altitude 10° 17:07:42 10° 5° (N) 2,701 6.3 -29.2°
Sets 17:10:14 0° 8° (N) 3,648 7.0 -29.6°
